Weather Service Report


826 
ASUS44 KLZK 202105
RWRLZK

WEATHER ROUNDUP FOR ARKANSAS
NATIONAL WEATHER SERVICE LITTLE ROCK AR
400 PM CDT MON OCT 20 2014

NOTE: "FAIR" INDICATES FEW OR NO CLOUDS BELOW 12,000 FEET WITH NO
SIGNIFICANT WEATHER AND/OR OBSTRUCTIONS TO VISIBILITY.

ARZ001-003-010-029-202200-
NORTHWEST ARKANSAS
  
CITY           SKY/WX    TMP DP  RH WIND       PRES   REMARKS
FAYETTEVILLE   CLOUDY    67  58  72 NW5       30.05S                  
FORT SMITH     CLOUDY    71  55  56 CALM      30.02F                  
HARRISON       CLOUDY    70  58  65 VRB5      30.03F                  
BENTONVILLE    CLOUDY    68  57  68 W3        30.05S                  
ROGERS         CLOUDY    68  58  70 CALM      30.06R                  
SILOAM SPGS    CLOUDY    70  55  60 CALM      30.06S                  
HIGHFILL       CLOUDY    67  58  72 CALM      30.05R                  
SPRINGDALE     CLOUDY    66  59  77 CALM      30.07R                  
$$

ARZ004-005-016-202200-
NORTH CENTRAL ARKANSAS
  
CITY           SKY/WX    TMP DP  RH WIND       PRES   REMARKS
BATESVILLE     PTSUNNY   73  57  56 SW7       30.00S                  
FLIPPIN        PTSUNNY   72  55  56 NW6       30.01F                  
MTN HOME       CLOUDY    70  57  63 VRB3      30.01S                  
$$

ARZ040-041-202200-
WEST CENTRAL ARKANSAS
  
CITY           SKY/WX    TMP DP  RH WIND       PRES   REMARKS
MENA           PTSUNNY   75  59  57 CALM      30.04S                  
MOUNT IDA      CLOUDY    69  58  67 CALM      30.02F                  
$$

ARZ009-017-025-026-028-202200-
NORTHEAST ARKANSAS
  
CITY           SKY/WX    TMP DP  RH WIND       PRES   REMARKS
JONESBORO      SUNNY     73  53  49 W12       29.99S                  
NEWPORT        SUNNY     76  56  49 SW10      30.00F                  
WALNUT RIDGE   CLOUDY    73  54  49 W7        29.98S                  
BLYTHEVILLE    MOSUNNY   75  54  47 W7        29.99F                  
NW BLYTHEVILLE MOSUNNY   73  55  53 SW10      29.99F                  
$$

ARZ022-023-033-042-044-202200-
CENTRAL ARKANSAS
  
CITY           SKY/WX    TMP DP  RH WIND       PRES   REMARKS
LITTLE ROCK    MOSUNNY   73  52  47 VRB5      30.03F                  
JACKSONVILLE   SUNNY     73  55  53 W7        30.03S                  
SEARCY         SUNNY     74  56  53 SW5       30.03S                  
HOT SPRINGS    PTSUNNY   68  56  65 CALM      30.05F                  
RUSSELLVILLE   MOSUNNY   71  55  56 NW8       30.03S                  
$$

ARZ036-202200-
EAST ARKANSAS
  
CITY           SKY/WX    TMP DP  RH WIND       PRES   REMARKS
WEST MEMPHIS   SUNNY     71  52  50 VRB7      30.00F                  
$$

ARZ050-053-066-070-073-202200-
SOUTHWEST ARKANSAS
  
CITY           SKY/WX    TMP DP  RH WIND       PRES   REMARKS
ARKADELPHIA    MOCLDY    72  59  63 NW3       30.05S                  
CAMDEN         PTSUNNY   73  52  46 CALM      30.05S                  
TEXARKANA      CLOUDY    75  51  43 CALM      30.04F                  
EL DORADO      SUNNY     74  52  46 NW5       30.05S                  
DE QUEEN       SUNNY     75  58  55 VRB5      30.01F                  
$$

ARZ056-057-069-202200-
SOUTHEAST ARKANSAS
  
CITY           SKY/WX    TMP DP  RH WIND       PRES   REMARKS
PINE BLUFF     MOSUNNY   72  52  49 W6        30.04S                  
STUTTGART      MOSUNNY   73  52  46 SW6       30.04S                  
MONTICELLO     SUNNY     74  52  46 N5        30.04S                  

$$



Return to Home page


Western Regional Climate Center, wrcc@dri.edu